User: anonymous   Login
Location: Tucson
(32.2217°N, 110.9265°W)
Time: 07:48:21
(UTC-07:00)
Language:

Tiros 1 - Orbit

View from above orbital plane
View from above orbital plane
View from above satellite
View from above satellite

Ground track
Ground track

The orbit data is extracted from the following two-line orbital elements,

1 00029U 60002B   21297.84296292 -.00000061  00000-0  21839-4 0  9997
2 00029  48.3783 135.2596 0024058 188.7413 171.3082 14.74466402291493
Epoch (UTC): 24 October 2021 20:13:51
Eccentricity: 0.0024058
inclination: 48.3783°
perigee height: 630 km
apogee height: 664 km
right ascension of ascending node: 135.2596°
argument of perigee: 188.7413°
revolutions per day: 14.74466402
mean anomaly at epoch: 171.3082°
orbit number at epoch: 29149

The dashed part of the orbit path shows where the satellite is in the earth's shadow,  

DLR